User: anonymous
Location: Unspecified
(0.0000°N, 0.0000°E)
Time: 15:10:50
(UTC+00:00)
Language:

USA 176 - Orbit

View from above orbital plane
View from above orbital plane
View from above satellite
View from above satellite

Ground track
Ground track

The orbit data is extracted from the following two-line orbital elements,

1 28158U 04004A   14290.89274468 0.00000000  00000-0  00000-0 0    09
2 28158   6.1589  53.3667 0003219  21.7129 338.3255  1.00270000    01
Epoch (UTC): 17 October 2014 21:25:33
Eccentricity: 0.0003219
inclination: 6.1589°
perigee height: 35773 km
apogee height: 35800 km
right ascension of ascending node: 53.3667°
argument of perigee: 21.7129°
revolutions per day: 1.00270000
mean anomaly at epoch: 338.3255°
orbit number at epoch: 0

The dashed part of the orbit path shows where the satellite is in the earth's shadow,  

DLR